Location: Lone Pine Community Mobile Home Park
(42.7367°N, 73.8567°W)
Time: 05:00:57
(UTC+00:00)

Cosmos 1939 Rocket - Pass Details

Date: 29 October 2020
Orbit: 532 x 584 km, 97.4° (Epoch: 29 November)

Event Time Altitude Azimuth Distance (km) Brightness Sun altitude
Rises 23:16:33 0° 174° (S) 2,728 6.4 -16.2°
Reaches altitude 10° 23:18:42 10° 178° (S) 1,830 5.5 -16.6°
Maximum altitude 23:22:37 62° 259° (W) 622 3.3 -17.3°
Drops below altitude 10° 23:26:30 10° 341° (NNW) 1,816 5.7 -18.0°
Sets 23:28:39 0° 345° (NNW) 2,707 6.5 -18.4°
